GW1714 Weather Reports


Display with metric or nautical units.
time (UTC)temp
F
wind
direction
speed
MPH
gust
MPH
rain 1hr
in
rain 24hr
in
rain mn
in
humidity
%
barometer
mb
20260831030822 78 349 2.0 2.0 0.00 0.00 0.00 84 1039.0
20260831030320 78 0 1.0 2.0 0.00 0.00 0.00 83 1038.9
20260831025819 78 0 0.0 0.0 0.00 0.00 0.00 82 1039.2
20260831025314 78 355 0.0 2.0 0.00 0.00 0.00 83 1039.1
20260831024810 78 0 0.0 1.0 0.00 0.00 0.00 82 1039.1
20260831024309 79 0 0.0 2.0 0.00 0.00 0.00 82 1038.9
20260831023808 79 0 0.0 1.0 0.00 0.00 0.00 81 1038.9
20260831023306 79 0 0.0 1.0 0.00 0.00 0.00 81 1038.8
20260831022802 79 353 1.0 2.0 0.00 0.00 0.00 81 1038.8
20260831022300 79 346 1.0 2.0 0.00 0.00 0.00 81 1038.9
20260831021755 79 342 0.0 2.0 0.00 0.00 0.00 81 1038.8
20260831021250 80 345 1.0 2.0 0.00 0.00 0.00 81 1038.9
20260831020747 80 352 1.0 1.0 0.00 0.00 0.00 80 1039.0
20260831020245 80 352 1.0 1.0 0.00 0.00 0.00 80 1038.9
20260831015741 80 0 0.0 1.0 0.00 0.00 0.00 80 1038.8
20260831015236 80 0 0.0 2.0 0.00 0.00 0.00 80 1038.7
20260831014731 80 0 0.0 1.0 0.00 0.00 0.00 80 1038.8
20260831014226 80 0 1.0 1.0 0.00 0.00 0.00 81 1038.8
20260831013722 80 352 0.0 1.0 0.00 0.00 0.00 80 1038.8
20260831013221 80 352 0.0 1.0 0.00 0.00 0.00 78 1038.7
20260831012716 81 345 0.0 1.0 0.00 0.00 0.00 77 1038.5
20260831012212 80 352 0.0 1.0 0.00 0.00 0.00 77 1038.6
20260831011711 80 0 0.0 1.0 0.00 0.00 0.00 79 1038.2
20260831011207 80 353 1.0 2.0 0.00 0.00 0.00 78 1038.4
20260831010703 81 352 1.0 1.0 0.00 0.00 0.00 78 1038.2
20260831010157 81 337 0.0 1.0 0.00 0.00 0.00 78 1038.2
20260831005657 81 353 1.0 2.0 0.00 0.00 0.00 79 1038.6
20260831005153 81 353 1.0 1.0 0.00 0.00 0.00 77 1038.1
20260831004648 81 334 1.0 2.0 0.00 0.00 0.00 75 1038.2
20260831004144 81 352 0.0 0.0 0.00 0.00 0.00 76 1038.0
20260831003640 80 352 0.0 1.0 0.00 0.00 0.00 78 1038.1
20260831003136 80 352 0.0 1.0 0.00 0.00 0.00 80 1038.1
20260831002634 81 355 2.0 2.0 0.00 0.00 0.00 79 1038.1
20260831002129 81 346 2.0 2.0 0.00 0.00 0.00 77 1038.0
20260831001625 81 350 2.0 3.0 0.00 0.00 0.00 77 1038.1
20260831001120 81 351 2.0 2.0 0.00 0.00 0.00 78 1038.1
20260831000617 82 349 2.0 2.0 0.00 0.00 0.00 78 1038.1
20260831000117 82 349 2.0 2.0 0.00 0.00 0.00 78 1038.0
20260830235616 82 349 2.0 2.0 0.00 0.00 0.00 77 1038.1
20260830235111 82 348 2.0 3.0 0.00 0.00 0.00 78 1037.9
20260830234606 83 339 2.0 2.0 0.00 0.00 0.00 77 1037.9
20260830234101 83 352 0.0 1.0 0.00 0.00 0.00 76 1038.1
20260830233556 83 352 1.0 1.0 0.00 0.00 0.00 77 1038.0
20260830233052 84 353 0.0 2.0 0.00 0.00 0.00 76 1037.9
20260830232548 84 6 0.0 2.0 0.00 0.00 0.00 75 1037.9
20260830232044 86 346 1.0 2.0 0.00 0.00 0.00 74 1037.8
20260830231539 86 8 0.0 1.0 0.00 0.00 0.00 72 1037.8
20260830231038 87 352 0.0 0.0 0.00 0.00 0.00 69 1037.8
20260830230534 88 352 0.0 0.0 0.00 0.00 0.00 66 1037.8
20260830230029 90 352 0.0 0.0 0.00 0.00 0.00 61 1037.7
20260830225524 89 353 0.0 1.0 0.00 0.00 0.00 62 1037.8
20260830225023 90 345 0.0 1.0 0.00 0.00 0.00 60 1037.9
20260830224522 90 0 0.0 0.0 0.00 0.00 0.00 59 1037.6
20260830224019 91 0 0.0 0.0 0.00 0.00 0.00 61 1037.9
20260830223516 90 8 0.0 0.0 0.00 0.00 0.00 60 1037.8
20260830223015 91 0 0.0 2.0 0.00 0.00 0.00 58 1037.8
20260830222510 90 0 0.0 1.0 0.00 0.00 0.00 60 1037.9
20260830222006 90 0 0.0 2.0 0.00 0.00 0.00 60 1037.8
20260830221502 90 0 1.0 1.0 0.00 0.00 0.00 59 1037.9
20260830220958 90 340 1.0 2.0 0.00 0.00 0.00 61 1038.0
20260830220457 91 345 1.0 2.0 0.00 0.00 0.00 58 1038.0
20260830215954 91 0 0.0 2.0 0.00 0.00 0.00 61 1038.1
20260830215450 91 354 0.0 1.0 0.00 0.00 0.00 59 1037.8
20260830214944 88 340 0.0 2.0 0.00 0.00 0.00 68 1038.2
20260830214439 87 345 0.0 1.0 0.00 0.00 0.00 71 1038.1
20260830213934 87 340 0.0 3.0 0.00 0.00 0.00 70 1038.2
20260830213429 87 3 2.0 3.0 0.00 0.00 0.00 69 1038.4
20260830212925 88 353 0.0 0.0 0.00 0.00 0.00 67 1038.2
20260830212420 87 353 0.0 1.0 0.00 0.00 0.00 67 1038.2
20260830211920 87 0 0.0 2.0 0.00 0.00 0.00 68 1037.9
20260830211414 88 354 0.0 2.0 0.00 0.00 0.00 64 1038.2
20260830210910 90 345 1.0 2.0 0.00 0.00 0.00 60 1037.9
20260830210409 90 330 2.0 2.0 0.00 0.00 0.00 58 1038.2
20260830205907 92 331 1.0 2.0 0.00 0.00 0.00 56 1038.0
20260830205406 93 337 1.0 2.0 0.00 0.00 0.00 55 1038.0
20260830204902 96 289 0.0 0.0 0.00 0.00 0.00 55 1038.0
20260830204401 95 180 0.0 1.0 0.00 0.00 0.00 55 1038.2
20260830203856 90 180 0.0 1.0 0.00 0.00 0.00 61 1038.4
20260830203353 90 188 0.0 0.0 0.00 0.00 0.00 59 1038.2
20260830202852 92 206 0.0 1.0 0.00 0.00 0.00 58 1038.2
20260830202347 93 127 2.0 3.0 0.00 0.00 0.00 54 1038.2
20260830201842 90 177 3.0 4.0 0.00 0.00 0.00 57 1038.5
20260830201336 91 166 1.0 3.0 0.00 0.00 0.00 57 1038.4
20260830200832 91 169 3.0 3.0 0.00 0.00 0.00 57 1038.8
20260830200331 91 187 1.0 3.0 0.00 0.00 0.00 56 1038.6
20260830195826 92 154 0.0 3.0 0.00 0.00 0.00 56 1038.7
20260830195321 92 106 1.0 2.0 0.00 0.00 0.00 55 1038.8
20260830194819 91 185 2.0 3.0 0.00 0.00 0.00 59 1038.9
20260830194317 89 177 3.0 4.0 0.00 0.00 0.00 59 1038.8
20260830193808 90 170 3.0 3.0 0.00 0.00 0.00 60 1039.0
20260830193302 93 117 1.0 2.0 0.00 0.00 0.00 55 1039.1
20260830192758 91 187 1.0 3.0 0.00 0.00 0.00 60 1039.0
20260830192252 91 180 0.0 2.0 0.00 0.00 0.00 62 1039.1
20260830191748 90 172 1.0 3.0 0.00 0.00 0.00 61 1039.1
20260830191247 90 186 0.0 0.0 0.00 0.00 0.00 60 1039.3
20260830190743 91 188 1.0 3.0 0.00 0.00 0.00 61 1039.3
20260830190238 92 346 1.0 3.0 0.00 0.00 0.00 58 1039.3
20260830185736 91 337 0.0 3.0 0.00 0.00 0.00 58 1039.4
20260830185232 91 160 0.0 2.0 0.00 0.00 0.00 60 1039.6
20260830184731 89 187 1.0 2.0 0.00 0.00 0.00 60 1039.4
20260830184231 90 173 0.0 1.0 0.00 0.00 0.00 64 1039.6
20260830183726 88 15 2.0 2.0 0.00 0.00 0.00 64 1039.9
20260830183221 86 348 1.0 2.0 0.00 0.00 0.00 68 1039.9
20260830182716 86 342 0.0 0.0 0.00 0.00 0.00 67 1040.0
20260830182212 86 5 2.0 3.0 0.00 0.00 0.00 66 1040.1
20260830181709 86 180 0.0 0.0 0.00 0.00 0.00 66 1040.0
20260830181209 84 180 2.0 2.0 0.00 0.00 0.00 66 1039.8
20260830180707 86 191 0.0 2.0 0.00 0.00 0.00 65 1040.5
20260830180202 87 162 2.0 2.0 0.00 0.00 0.00 63 1040.3
20260830175702 87 151 1.0 3.0 0.00 0.00 0.00 66 1040.5
20260830175156 87 165 0.0 2.0 0.00 0.00 0.00 66 1040.5
20260830174652 86 20 0.0 1.0 0.00 0.00 0.00 67 1040.3
20260830174148 84 151 0.0 1.0 0.00 0.00 0.00 69 1040.5
20260830173647 84 180 0.0 0.0 0.00 0.00 0.00 70 1040.8
20260830173143 84 180 0.0 1.0 0.00 0.00 0.00 70 1040.6
20260830172639 84 180 0.0 1.0 0.00 0.00 0.00 70 1040.7
20260830172137 85 203 1.0 2.0 0.00 0.00 0.00 68 1040.7
20260830171636 85 180 0.0 1.0 0.00 0.00 0.00 68 1040.8
20260830171131 84 240 0.0 2.0 0.00 0.00 0.00 68 1041.1
20260830170625 85 189 2.0 2.0 0.00 0.00 0.00 69 1041.0
20260830170125 85 180 0.0 1.0 0.00 0.00 0.00 69 1041.1
20260830165619 84 112 0.0 3.0 0.00 0.00 0.00 69 1041.1
20260830165115 83 203 1.0 2.0 0.00 0.00 0.00 70 1041.2
20260830164611 83 157 1.0 3.0 0.00 0.00 0.00 70 1041.4
20260830164107 83 188 0.0 1.0 0.00 0.00 0.00 70 1041.1
20260830163604 83 174 1.0 2.0 0.00 0.00 0.00 71 1041.0
20260830163103 82 198 0.0 1.0 0.00 0.00 0.00 71 1041.3
20260830162559 82 180 0.0 2.0 0.00 0.00 0.00 71 1041.3
20260830162054 82 157 0.0 1.0 0.00 0.00 0.00 71 1041.4
20260830161548 82 166 2.0 2.0 0.00 0.00 0.00 71 1041.4
20260830161044 82 174 0.0 2.0 0.00 0.00 0.00 72 1041.4
20260830160540 81 166 0.0 3.0 0.00 0.00 0.00 73 1041.5
20260830160035 81 180 0.0 1.0 0.00 0.00 0.00 75 1041.7
20260830155531 81 186 1.0 3.0 0.00 0.00 0.00 73 1041.6
20260830155026 81 154 2.0 3.0 0.00 0.00 0.00 74 1041.5
20260830154521 80 96 2.0 2.0 0.00 0.00 0.00 71 1041.7
20260830154018 80 123 0.0 3.0 0.00 0.00 0.00 78 1041.5
20260830153514 80 145 0.0 0.0 0.00 0.00 0.00 80 1041.5
20260830153014 80 117 0.0 2.0 0.00 0.00 0.00 75 1041.7
20260830152508 80 82 0.0 2.0 0.00 0.00 0.00 80 1041.7
20260830152006 79 157 0.0 1.0 0.00 0.00 0.00 82 1041.5
20260830151501 79 172 0.0 2.0 0.00 0.00 0.00 82 1041.4
20260830150956 79 23 0.0 2.0 0.00 0.00 0.00 82 1041.6
20260830150455 79 106 0.0 0.0 0.00 0.00 0.00 82 1041.6
20260830145950 79 105 0.0 1.0 0.00 0.00 0.00 82 1041.6
20260830145444 78 165 0.0 1.0 0.00 0.00 0.00 82 1041.5
20260830144940 78 160 0.0 2.0 0.00 0.00 0.00 83 1041.5
20260830144436 79 157 0.0 2.0 0.00 0.00 0.00 81 1041.6
20260830143931 79 23 0.0 1.0 0.00 0.00 0.00 82 1041.3
20260830143426 78 151 0.0 1.0 0.00 0.00 0.00 83 1041.4
20260830142925 78 144 0.0 0.0 0.00 0.00 0.00 83 1041.4
20260830142420 78 32 2.0 3.0 0.00 0.00 0.00 83 1041.3
20260830141914 78 0 1.0 1.0 0.00 0.00 0.00 82 1041.6
20260830141410 78 354 1.0 2.0 0.00 0.00 0.00 82 1041.7
20260830140905 78 353 0.0 2.0 0.00 0.00 0.00 82 1041.5
20260830140400 78 0 0.0 2.0 0.00 0.00 0.00 82 1041.6
20260830135859 78 0 0.0 2.0 0.00 0.00 0.00 82 1041.5
20260830135355 78 355 2.0 3.0 0.00 0.00 0.00 82 1041.3
20260830134850 77 345 1.0 2.0 0.00 0.00 0.00 85 1041.5
20260830134345 76 157 0.0 0.0 0.00 0.00 0.00 85 1041.5
20260830133841 76 106 0.0 0.0 0.00 0.00 0.00 85 1041.5
20260830133337 77 6 0.0 2.0 0.00 0.00 0.00 84 1041.6
20260830132832 76 350 2.0 2.0 0.00 0.00 0.00 84 1041.4
20260830132328 76 8 2.0 2.0 0.00 0.00 0.00 85 1041.4
20260830131827 75 337 2.0 2.0 0.00 0.00 0.00 85 1041.4
20260830131321 75 346 0.0 2.0 0.00 0.00 0.00 85 1041.4
20260830130816 75 29 0.0 1.0 0.00 0.00 0.00 86 1041.2
20260830130312 75 0 1.0 2.0 0.00 0.00 0.00 86 1041.3
20260830125810 74 0 2.0 2.0 0.00 0.00 0.00 86 1041.2
20260830125307 74 340 1.0 2.0 0.00 0.00 0.00 87 1041.3
20260830124804 73 356 2.0 3.0 0.00 0.00 0.00 88 1041.3
20260830124259 73 339 2.0 3.0 0.00 0.00 0.00 89 1041.1
20260830123756 73 348 2.0 2.0 0.00 0.00 0.00 89 1040.8
20260830123252 73 337 2.0 3.0 0.00 0.00 0.00 89 1041.2
20260830122749 72 352 0.0 2.0 0.00 0.00 0.00 90 1040.9
20260830122244 72 349 2.0 2.0 0.00 0.00 0.00 90 1040.9
20260830121739 72 339 2.0 3.0 0.00 0.00 0.00 90 1041.0
20260830121238 72 345 2.0 2.0 0.00 0.00 0.00 90 1040.9
20260830120734 71 337 0.0 2.0 0.00 0.00 0.00 90 1040.9
20260830120230 71 353 0.0 1.0 0.00 0.00 0.00 90 1040.8
20260830115726 72 346 1.0 2.0 0.00 0.00 0.00 91 1040.6
20260830115227 71 334 1.0 1.0 0.00 0.00 0.00 92 1040.8
20260830114723 71 0 0.0 2.0 0.00 0.00 0.00 92 1040.9
20260830114218 71 350 2.0 2.0 0.00 0.00 0.00 92 1040.6
20260830113713 71 334 2.0 2.0 0.00 0.00 0.00 91 1040.5
20260830113208 71 345 0.0 2.0 0.00 0.00 0.00 91 1040.5
20260830112704 71 340 0.0 2.0 0.00 0.00 0.00 91 1040.6
20260830112200 71 346 0.0 1.0 0.00 0.00 0.00 92 1040.3
20260830111656 71 334 1.0 2.0 0.00 0.00 0.00 92 1040.7
20260830111151 71 345 0.0 1.0 0.00 0.00 0.00 93 1040.3
20260830110645 71 345 1.0 2.0 0.00 0.00 0.00 93 1039.9
20260830110141 70 342 0.0 1.0 0.00 0.00 0.00 94 1039.9
20260830105635 70 0 0.0 2.0 0.00 0.00 0.00 94 1040.0
20260830105131 70 355 1.0 1.0 0.00 0.00 0.00 95 1040.0
20260830104628 70 346 0.0 2.0 0.00 0.00 0.00 95 1039.9
20260830104125 70 356 2.0 3.0 0.00 0.00 0.00 94 1039.8
20260830103624 71 352 0.0 0.0 0.00 0.00 0.00 94 1039.9
20260830103119 71 0 1.0 1.0 0.00 0.00 0.00 93 1039.8
20260830102618 71 352 0.0 2.0 0.00 0.00 0.00 93 1039.8
20260830102114 71 8 0.0 2.0 0.00 0.00 0.00 92 1040.0
20260830101610 72 0 0.0 0.0 0.00 0.00 0.00 92 1039.8
20260830101109 72 0 0.0 2.0 0.00 0.00 0.00 92 1039.8
20260830100609 72 337 0.0 0.0 0.00 0.00 0.00 91 1039.8
20260830095603 72 340 1.0 1.0 0.00 0.00 0.00 90 1039.9
20260830095059 72 353 0.0 0.0 0.00 0.00 0.00 90 1039.6
20260830094555 72 0 0.0 1.0 0.00 0.00 0.00 90 1039.8
20260830094050 72 0 0.0 0.0 0.00 0.00 0.00 91 1039.7
20260830093544 72 0 0.0 0.0 0.00 0.00 0.00 90 1039.7
20260830093041 72 345 1.0 2.0 0.00 0.00 0.00 90 1039.8
20260830092536 72 0 0.0 0.0 0.00 0.00 0.00 91 1039.8
20260830092033 71 353 0.0 1.0 0.00 0.00 0.00 92 1039.9
20260830091528 72 14 2.0 2.0 0.00 0.00 0.00 92 1039.7
20260830091027 71 352 0.0 0.0 0.00 0.00 0.00 93 1039.7
20260830090522 71 352 0.0 0.0 0.00 0.00 0.00 94 1039.9
20260830090018 70 352 0.0 0.0 0.00 0.00 0.00 94 1039.9
20260830085518 70 0 0.0 0.0 0.00 0.00 0.00 95 1039.6
20260830085014 70 356 2.0 3.0 0.00 0.00 0.00 93 1039.8
20260830084509 71 14 2.0 2.0 0.00 0.00 0.00 91 1039.5
20260830084003 71 49 0.0 0.0 0.00 0.00 0.00 91 1039.7
20260830083459 72 49 0.0 0.0 0.00 0.00 0.00 91 1039.7
20260830082958 72 49 0.0 2.0 0.00 0.00 0.00 91 1039.7
20260830082454 72 0 0.0 0.0 0.00 0.00 0.00 90 1039.6
20260830081948 72 15 0.0 0.0 0.00 0.00 0.00 90 1039.6
20260830081444 72 15 0.0 0.0 0.00 0.00 0.00 91 1039.5
20260830080943 72 23 1.0 2.0 0.00 0.00 0.00 92 1039.4
20260830080439 71 352 0.0 0.0 0.00 0.00 0.00 93 1039.7
20260830075939 71 6 0.0 0.0 0.00 0.00 0.00 95 1039.8
20260830075434 70 0 0.0 1.0 0.00 0.00 0.00 95 1039.6
20260830074929 71 340 0.0 1.0 0.00 0.00 0.00 95 1039.4
20260830074426 71 8 0.0 0.0 0.00 0.00 0.00 95 1039.5
20260830073921 71 0 0.0 2.0 0.00 0.00 0.00 94 1039.5
20260830073416 71 23 0.0 2.0 0.00 0.00 0.00 93 1039.4
20260830072912 72 29 0.0 1.0 0.00 0.00 0.00 92 1039.4
20260830072408 72 0 0.0 0.0 0.00 0.00 0.00 92 1039.3
20260830071907 72 0 0.0 0.0 0.00 0.00 0.00 92 1039.0
20260830071402 72 180 0.0 1.0 0.00 0.00 0.00 92 1039.4
20260830070900 72 0 0.0 0.0 0.00 0.00 0.00 91 1039.4
20260830070355 71 0 0.0 0.0 0.00 0.00 0.00 92 1039.4
20260830065854 71 342 1.0 2.0 0.00 0.00 0.00 93 1039.1
20260830065349 71 0 0.0 0.0 0.00 0.00 0.00 94 1039.4
20260830064847 71 0 0.0 1.0 0.00 0.00 0.00 94 1039.3
20260830064343 72 0 2.0 3.0 0.00 0.00 0.00 91 1039.1
20260830063842 73 348 1.0 2.0 0.00 0.00 0.00 87 1039.2
20260830063338 73 342 1.0 2.0 0.00 0.00 0.00 86 1039.2
20260830062832 72 172 0.0 0.0 0.00 0.00 0.00 88 1039.4
20260830062331 73 172 0.0 1.0 0.00 0.00 0.00 89 1039.3
20260830061826 75 0 0.0 1.0 0.00 0.00 0.00 85 1039.4
20260830061326 75 0 0.0 0.0 0.00 0.00 0.00 82 1039.1
20260830060823 75 8 0.0 1.0 0.00 0.00 0.00 83 1039.5
20260830060319 75 0 0.0 0.0 0.00 0.00 0.00 83 1039.3
20260830055819 75 8 0.0 0.0 0.00 0.00 0.00 84 1039.4
20260830055315 74 0 0.0 0.0 0.00 0.00 0.00 85 1039.4
20260830054810 74 7 0.0 0.0 0.00 0.00 0.00 88 1039.6
20260830054305 75 354 3.0 3.0 0.00 0.00 0.00 84 1039.4
20260830053801 74 0 0.0 0.0 0.00 0.00 0.00 86 1039.4
20260830053256 74 8 0.0 0.0 0.00 0.00 0.00 87 1039.5
20260830052755 74 353 1.0 2.0 0.00 0.00 0.00 87 1039.6
20260830052251 75 7 1.0 1.0 0.00 0.00 0.00 86 1039.4
20260830051746 75 29 0.0 1.0 0.00 0.00 0.00 83 1039.5
20260830051241 76 8 2.0 2.0 0.00 0.00 0.00 82 1039.6
20260830050739 77 173 0.0 0.0 0.00 0.00 0.00 79 1039.6
20260830050235 76 165 0.0 1.0 0.00 0.00 0.00 80 1039.5
20260830045733 76 166 0.0 2.0 0.00 0.00 0.00 81 1039.6
20260830045229 75 157 0.0 2.0 0.00 0.00 0.00 84 1039.6
20260830044728 76 0 0.0 0.0 0.00 0.00 0.00 82 1039.6
20260830044224 75 0 0.0 0.0 0.00 0.00 0.00 84 1039.6
20260830043718 76 0 0.0 1.0 0.00 0.00 0.00 84 1039.5
20260830043213 76 0 0.0 2.0 0.00 0.00 0.00 85 1039.5
20260830042710 76 0 0.0 0.0 0.00 0.00 0.00 83 1039.6
20260830042206 76 0 0.0 0.0 0.00 0.00 0.00 84 1039.6
20260830041704 76 0 0.0 0.0 0.00 0.00 0.00 84 1039.6
20260830041203 75 0 0.0 0.0 0.00 0.00 0.00 85 1039.7
20260830040659 76 0 0.0 0.0 0.00 0.00 0.00 87 1039.7
20260830040155 76 353 0.0 3.0 0.00 0.00 0.00 85 1039.7
20260830035653 76 353 0.0 1.0 0.00 0.02 0.02 82 1039.8
20260830035148 76 0 0.0 0.0 0.00 0.02 0.02 83 1039.8
20260830034643 76 0 0.0 0.0 0.00 0.02 0.02 84 1039.6
20260830034143 76 0 0.0 2.0 0.00 0.02 0.02 84 1039.6
20260830033639 76 352 0.0 0.0 0.00 0.02 0.02 84 1039.7
20260830033134 75 0 0.0 2.0 0.00 0.02 0.02 87 1039.5
20260830032633 75 342 0.0 3.0 0.00 0.02 0.02 87 1039.6
20260830032128 74 344 2.0 2.0 0.00 0.02 0.02 87 1039.6
20260830031624 75 145 0.0 0.0 0.00 0.02 0.02 87 1039.7
20260830031119 76 0 0.0 2.0 0.00 0.02 0.02 85 1039.7